June 9th
(Preview)
June
8
1095
Meteorites http://astronomy.activeboard.com/t62773092/setesdal-meteorite/
Sun 07.06.15
(Preview)
Solar 2015
1
344
The eastern limb captured with a 100mm f5 Helios refractor and vesta pro webcam.
Jamalpur Workshop
(Preview)
Off Topic
2
1011
Jamalpur Workshop was established on the 8th day of February, 1862. Jamalpur Workshop was the first full-fledged railway workshop facilities in India, set up by the East Indian Railway. Read more
June 8th
(Preview)
June
8
1030
Meteorites http://astronomy.activeboard.com/t49504647/ogi-meteorite/
KBO (174567) 2003 MW12
(Preview)
Asteroids
5
4912
Kuiper Belt Object (174567) 2003 MW12 is at Opposition (47.521 AU) on the 5th December, 2011. Kuiper Belt Object (174567) 2003 MW12 is a Trans-Neptunian object with an absolute magnitude of 3.4. It is very likely a dwarf planet. It was discovered on June 21, 2003 by Jeffrey A. Larsen with the Spacewat...
Comet C/2014 R1 (Borisov)
(Preview)
Comets 2014
2
1139
Comet C/2014 R1 (Borisov) is at Perihelion (1.345 AU) on the 19th November 2014 Ephemeris Date TT R. A. (2000) Decl. Delta r Elong. Phase Mag
2014 11 18 12 39 27.2 +02 06 30 1.8724 1.4061 47.4 31.2 14.8
2014 11 19 12 42 49.9 +01 49 29 1.8705 1.4066 47.5 31.2 14.8
2014 11 20 12 46 12.1 +01 32 33 1.8687 1.4072 4...
Comet P/2014 D2 (Catalina-PANSTARRS)
(Preview)
Comets 2014
4
1194
Comet P/2014 D2 (Catalina-PANSTARRS) is at Opposition (2.607 AU) on the 12th March 2014. Ephemeris Date TT R. A. (2000) Decl. Delta r Elong. Phase Mag
2014 03 10 11 06 55.1 -09 44 30 2.6124 3.5827 165.6 4.0 19.1
2014 03 11 11 06 16.2 -09 41 16 2.6095 3.5805 165.7 3.9 19.1
2014 03 12 11 05 37.4 -09 37 57 2.606...
Comet C/2015 K2 (PANSTARRS)
(Preview)
Comets 2015
0
666
Comet C/2015 K2 (PANSTARRS) is at Perihelion (1.457 AU) in the constellation Bootes on the 8th June 2015 Ephemeris Date UT R.A. (J2000) Decl. Delta r El. Ph. Mag
2015 06 07 000000 13 44 24.4 +06 51 37 0.622 1.458 124.2 35.2 20.6
2015 06 08 000000 13 46 52.1 +07 26 34 0.627 1.458 123.5 35.5 20.6
2015 06 09 0...
Asteroid (72) Feronia
(Preview)
Asteroids 2012
2
944
Asteroid (72) Feronia is at Opposition on the 7th September, 2012. Magnitude: 10.9 Distance to Earth: 1.029 AU Distance to Sun center: 2.033 AUSpoiler
Saturn 07.06.15
(Preview)
Observations
0
738
Dorsa Smirnov
(Preview)
The Moon
0
1373
Dorsa Smirnov is a 156 - 220 km long wrinkle ridge system located at 27.3°N 25.3°E in Mare Serenitatis on the Moon. It is not entirely clear how far the structure extends to the north. The approximate center of the ridge is the small crater designated Very. At the southern end, the ridge disappears almo...
Moon 06.06.15
(Preview)
Observations
0
680
24 panel photomosaic of a 86% lunar phase captured with a 200mm f5 reflector and vesta pro webcam.
June 7th
(Preview)
June
9
1118
Meteorites http://astronomy.activeboard.com/t49487861/st-denis-westrem-meteorite/
1931 Dogger Bank earthquake
(Preview)
Earthquakes
1
7653
The Dogger Bank earthquake of 1931 was the strongest earthquake recorded in the United Kingdom since measurements began. It measured 6.1 on the Richter Scale. Read more
Comet P/2012 WX32 (TENAGRA)
(Preview)
Comets
5
2271
Orbital elements:
P/2012 WX32 (Tenagra)
T 2013 Feb. 26.55273 TT MPC
q 2.4206365 (2000.0) P Q
n 0.11178740 Peri. 39.75943 -0.49052963 -0.82955845
a 4.2678336 Node 81.17199 +0.71495071 -0.55819820
e 0.4328184 Incl. 15.66770 +0.49822301 -0.01573353
P 8.82
From 28 observations 2012 Nov...
«First < 1
331 332 333 334 335
2461 > Last» | Page
